• In Uzbekistan
  • List of Countries
  • For 7 days
  • Water Temperature
  • Satellite Maps
  • Weather Map
  • Weather Widgets
  • user-avatar
    Login

    Hourly Weather Elbasan

    Today, 27 March, Monday

    Time Temperature Precipitation Wind Pressure Humidity
    00:00 +9°C° 0.2 mm 2 mps 735 mmHg 89%
    01:00 +8°C° 0.2 mm 2 mps 735 mmHg 88%
    02:00 +8°C° 0.1 mm 2 mps 735 mmHg 86%
    03:00 +7°C° 0.1 mm 2 mps 736 mmHg 85%
    04:00 +7°C° 0.1 mm 3 mps 736 mmHg 84%
    05:00 +7°C° 0 mm 3 mps 736 mmHg 81%
    06:00 +7°C° 0 mm 3 mps 736 mmHg 77%
    07:00 +8°C° 0 mm 3 mps 736 mmHg 74%
    08:00 +9°C° 0.1 mm 3 mps 736 mmHg 67%
    09:00 +11°C° 0.1 mm 3 mps 737 mmHg 60%
    10:00 +14°C° 0.1 mm 2 mps 737 mmHg 53%
    11:00 +15°C° 0.3 mm 2 mps 737 mmHg 52%
    12:00 +16°C° 0.3 mm 2 mps 737 mmHg 51%
    13:00 +16°C° 0.3 mm 2 mps 737 mmHg 49%
    14:00 +16°C° 0.3 mm 2 mps 737 mmHg 53%
    15:00 +15°C° 0.3 mm 2 mps 737 mmHg 56%
    16:00 +14°C° 0.3 mm 2 mps 737 mmHg 60%
    17:00 +13°C° 0.2 mm 2 mps 737 mmHg 65%
    18:00 +12°C° 0.2 mm 2 mps 737 mmHg 71%
    19:00 +9°C° 0.2 mm 2 mps 738 mmHg 77%
    20:00 +9°C° 0 mm 2 mps 738 mmHg 78%
    21:00 +9°C° 0 mm 2 mps 738 mmHg 79%
    22:00 +8°C° 0 mm 2 mps 739 mmHg 80%
    23:00 +8°C° 0 mm 2 mps 739 mmHg 80%

    Tomorrow, 28 March, Tuesday

    Time Temperature Precipitation Wind Pressure Humidity
    00:00 +7°C° 0 mm 2 mps 739 mmHg 81%
    01:00 +7°C° 0 mm 2 mps 739 mmHg 81%
    02:00 +7°C° 0 mm 2 mps 739 mmHg 81%
    03:00 +7°C° 0 mm 2 mps 739 mmHg 81%
    04:00 +6°C° 0 mm 2 mps 739 mmHg 81%
    05:00 +7°C° 0 mm 2 mps 739 mmHg 78%
    06:00 +8°C° 0 mm 2 mps 739 mmHg 74%
    07:00 +8°C° 0 mm 2 mps 739 mmHg 71%
    08:00 +10°C° 0 mm 2 mps 739 mmHg 63%
    09:00 +13°C° 0 mm 2 mps 739 mmHg 56%
    10:00 +15°C° 0 mm 1 mps 739 mmHg 48%
    11:00 +16°C° 0 mm 2 mps 739 mmHg 45%
    12:00 +17°C° 0 mm 2 mps 739 mmHg 42%
    13:00 +18°C° 0 mm 2 mps 739 mmHg 39%
    14:00 +18°C° 0 mm 2 mps 738 mmHg 39%
    15:00 +17°C° 0 mm 3 mps 738 mmHg 40%
    16:00 +17°C° 0 mm 3 mps 738 mmHg 41%
    17:00 +14°C° 0 mm 3 mps 738 mmHg 49%
    18:00 +13°C° 0 mm 2 mps 738 mmHg 58%
    19:00 +9°C° 0 mm 2 mps 738 mmHg 66%
    20:00 +9°C° 0 mm 2 mps 739 mmHg 66%
    21:00 +9°C° 0 mm 2 mps 739 mmHg 66%
    22:00 +8°C° 0 mm 2 mps 739 mmHg 66%
    23:00 +8°C° 0 mm 2 mps 739 mmHg 66%

    Day after tomorrow, 29 March, Wednesday

    Time Temperature Precipitation Wind Pressure Humidity
    00:00 +8°C° 0 mm 2 mps 739 mmHg 66%
    01:00 +7°C° 0 mm 2 mps 739 mmHg 65%
    02:00 +7°C° 0 mm 2 mps 739 mmHg 65%
    03:00 +7°C° 0 mm 2 mps 739 mmHg 65%
    04:00 +7°C° 0 mm 2 mps 739 mmHg 65%
    05:00 +8°C° 0 mm 2 mps 739 mmHg 63%
    06:00 +9°C° 0 mm 2 mps 739 mmHg 61%
    07:00 +10°C° 0 mm 2 mps 740 mmHg 59%
    08:00 +13°C° 0 mm 2 mps 740 mmHg 51%
    09:00 +16°C° 0 mm 2 mps 740 mmHg 44%
    10:00 +18°C° 0 mm 2 mps 740 mmHg 37%
    11:00 +19°C° 0 mm 2 mps 739 mmHg 35%
    12:00 +20°C° 0 mm 2 mps 739 mmHg 33%
    13:00 +21°C° 0 mm 2 mps 739 mmHg 31%
    14:00 +20°C° 0 mm 3 mps 738 mmHg 33%
    15:00 +20°C° 0 mm 3 mps 738 mmHg 35%
    16:00 +19°C° 0 mm 3 mps 738 mmHg 37%
    17:00 +17°C° 0 mm 3 mps 738 mmHg 46%
    18:00 +14°C° 0 mm 2 mps 738 mmHg 55%
    19:00 +12°C° 0 mm 2 mps 738 mmHg 65%
    20:00 +10°C° 0 mm 2 mps 738 mmHg 64%
    21:00 +10°C° 0 mm 2 mps 739 mmHg 63%
    22:00 +10°C° 0 mm 1 mps 739 mmHg 61%
    23:00 +10°C° 0 mm 1 mps 739 mmHg 61%

    30 March, Thursday

    Time Temperature Precipitation Wind Pressure Humidity
    00:00 +10°C° 0 mm 1 mps 739 mmHg 61%
    01:00 +10°C° 0 mm 1 mps 739 mmHg 61%
    02:00 +9°C° 0 mm 1 mps 739 mmHg 62%
    03:00 +9°C° 0 mm 1 mps 739 mmHg 63%
    04:00 +9°C° 0 mm 1 mps 739 mmHg 64%
    05:00 +10°C° 0 mm 1 mps 739 mmHg 62%
    06:00 +11°C° 0 mm 1 mps 739 mmHg 61%
    07:00 +13°C° 0 mm 1 mps 739 mmHg 59%
    08:00 +15°C° 0 mm 1 mps 739 mmHg 53%
    09:00 +18°C° 0 mm 1 mps 739 mmHg 47%
    10:00 +20°C° 0 mm 1 mps 739 mmHg 40%
    11:00 +20°C° 0 mm 2 mps 739 mmHg 39%
    12:00 +21°C° 0 mm 2 mps 739 mmHg 38%
    13:00 +21°C° 0 mm 3 mps 739 mmHg 36%
    14:00 +21°C° 0 mm 3 mps 738 mmHg 39%
    15:00 +20°C° 0 mm 3 mps 738 mmHg 41%
    16:00 +20°C° 0 mm 4 mps 738 mmHg 44%
    17:00 +18°C° 0 mm 3 mps 738 mmHg 53%
    18:00 +14°C° 0 mm 3 mps 738 mmHg 63%
    19:00 +13°C° 0 mm 2 mps 739 mmHg 73%
    20:00 +13°C° 0 mm 2 mps 739 mmHg 74%
    21:00 +12°C° 0 mm 2 mps 739 mmHg 75%
    22:00 +12°C° 0 mm 2 mps 740 mmHg 76%
    23:00 +12°C° 0 mm 2 mps 740 mmHg 77%

    31 March, Friday

    Time Temperature Precipitation Wind Pressure Humidity
    00:00 +12°C° 0 mm 2 mps 740 mmHg 79%
    01:00 +10°C° 0 mm 2 mps 740 mmHg 80%
    02:00 +10°C° 0 mm 2 mps 740 mmHg 81%
    03:00 +10°C° 0 mm 2 mps 739 mmHg 82%
    04:00 +9°C° 0 mm 2 mps 739 mmHg 83%
    05:00 +10°C° 0 mm 2 mps 740 mmHg 80%
    06:00 +12°C° 0 mm 2 mps 740 mmHg 77%
    07:00 +13°C° 0 mm 2 mps 740 mmHg 73%
    08:00 +15°C° 0 mm 2 mps 740 mmHg 63%
    09:00 +17°C° 0 mm 2 mps 740 mmHg 53%
    10:00 +19°C° 0 mm 2 mps 741 mmHg 42%
    11:00 +20°C° 0 mm 2 mps 740 mmHg 40%
    12:00 +21°C° 0 mm 2 mps 740 mmHg 39%
    13:00 +23°C° 0 mm 2 mps 740 mmHg 37%
    14:00 +23°C° 0 mm 2 mps 740 mmHg 39%
    15:00 +21°C° 0 mm 2 mps 739 mmHg 42%
    16:00 +20°C° 0 mm 2 mps 739 mmHg 45%
    17:00 +18°C° 0 mm 2 mps 739 mmHg 53%
    18:00 +16°C° 0 mm 2 mps 739 mmHg 62%
    19:00 +14°C° 0 mm 1 mps 739 mmHg 71%
    20:00 +13°C° 0 mm 1 mps 739 mmHg 72%
    21:00 +13°C° 0 mm 1 mps 740 mmHg 74%
    22:00 +12°C° 0 mm 1 mps 740 mmHg 75%
    23:00 +12°C° 0 mm 1 mps 740 mmHg 76%

    1 April, Saturday

    Time Temperature Precipitation Wind Pressure Humidity
    00:00 +12°C° 0 mm 1 mps 739 mmHg 78%
    01:00 +12°C° 0 mm 2 mps 739 mmHg 79%
    02:00 +10°C° 0 mm 2 mps 739 mmHg 80%
    03:00 +10°C° 0 mm 2 mps 739 mmHg 81%
    04:00 +10°C° 0 mm 2 mps 739 mmHg 83%
    05:00 +12°C° 0 mm 2 mps 739 mmHg 80%
    06:00 +12°C° 0 mm 2 mps 739 mmHg 77%
    07:00 +13°C° 0 mm 2 mps 739 mmHg 74%
    08:00 +15°C° 0 mm 2 mps 739 mmHg 66%
    09:00 +18°C° 0 mm 1 mps 739 mmHg 57%
    10:00 +21°C° 0 mm 1 mps 739 mmHg 49%
    11:00 +21°C° 0.1 mm 1 mps 739 mmHg 47%
    12:00 +21°C° 0.1 mm 2 mps 738 mmHg 45%
    13:00 +21°C° 0.1 mm 2 mps 738 mmHg 44%
    14:00 +20°C° 0.3 mm 2 mps 737 mmHg 48%
    15:00 +19°C° 0.3 mm 2 mps 737 mmHg 53%
    16:00 +18°C° 0.3 mm 2 mps 736 mmHg 58%
    17:00 +17°C° 0.1 mm 2 mps 736 mmHg 67%
    18:00 +15°C° 0.1 mm 2 mps 737 mmHg 76%
    19:00 +13°C° 0.1 mm 1 mps 737 mmHg 85%
    20:00 +13°C° 0 mm 1 mps 737 mmHg 86%
    21:00 +12°C° 0 mm 1 mps 737 mmHg 86%
    22:00 +12°C° 0 mm 1 mps 737 mmHg 87%
    23:00 +12°C° 0 mm 1 mps 737 mmHg 87%
    Show more